Weather History for Lake Charles Regional, LA

Change the Weather History Date:

Thursday, January 24, 2013

  Actual Average Record
Temperature  
Mean Temperature 60 °F 52 °F  
Max Temperature 72 °F 62 °F 84 °F (1909)
Min Temperature 48 °F 43 °F 12 °F (1948)
Degree Days  
Heating Degree Days 5 13  
Month to date heating degree days 301 332  
Since 1 July heating degree days 756 906  
Cooling Degree Days 0 0  
Month to date cooling degree days 9 0  
Year to date cooling degree days 9 0  
Growing Degree Days 12 (Base 50)    
Moisture  
Dew Point 54 °F    
Average Humidity 84    
Maximum Humidity 100    
Minimum Humidity 68    
Precipitation  
Precipitation 0.00 in 0.16 in 4.42 in (1920)
Month to date precipitation 11.32 4.15  
Year to date precipitation 11.32 4.15  
Snow  
Snow 0.00 in 0.00 in T in (2014)
Month to date snowfall 0.0 0.0  
Since 1 July snowfall 0.0 T  
Snow Depth 0.00 in    
Sea Level Pressure  
Sea Level Pressure 30.27 in    
Wind  
Wind Speed 5 mph (South)    
Max Wind Speed 14 mph    
Max Gust Speed 18 mph    
Visibility 6 miles    
Events Fog    
T = Trace of Precipitation, MM = Missing Value Source: NWS Daily Summary

Daily Weather History Graph

Daily Weather History Graph

Search for Another Location

Airport:

Trip Planner

Search our weather history database for the weather conditions in past years. The results will help you decide how hot, cold, wet, or windy it might be!

Date:

Astronomy

Jan. 24, 2013 Rise Set
Actual Time 7:07 AM CST 5:43 PM CST
Civil Twilight 6:41 AM CST 6:08 PM CST
Nautical Twilight 6:12 AM CST 6:37 PM CST
Astronomical Twilight 5:44 AM CST 7:06 PM CST
Moon 3:48 PM CST (1/24) 5:02 AM CST (1/24)
Length of Visible Light 11h 26m
Length of Day
10h 36m
Waxing Gibbous, 94% of the Moon is Illuminated
Jan 24
Waxing Gibbous
Jan 26
Full
Feb 3
Last Quarter
Feb 10
New
Feb 17
First Quarter

Hourly Weather History & Observations

Time (CST) Temp. Dew Point Humidity Pressure Visibility Wind Dir Wind Speed Gust Speed Precip Events Conditions
12:18 AM 51.8 °F 48.2 °F 88% 30.27 in 1.8 mi Calm Calm - N/A   Clear
12:41 AM 51.8 °F 48.2 °F 88% 30.27 in 4.0 mi Calm Calm - N/A   Clear
12:53 AM 51.1 °F 48.9 °F 92% 30.30 in 2.5 mi Calm Calm - N/A   Clear
12:59 AM 51.8 °F 48.2 °F 88% 30.27 in 0.8 mi Calm Calm - N/A   Clear
1:26 AM 50.0 °F 48.2 °F 94% 30.27 in 0.2 mi Calm Calm - N/A Fog Fog
1:41 AM 50.0 °F 48.2 °F 94% 30.27 in 0.8 mi Calm Calm - N/A   Clear
1:53 AM 50.0 °F 48.0 °F 93% 30.29 in 0.8 mi Calm Calm - N/A   Clear
2:01 AM 50.0 °F 48.2 °F 94% 30.27 in 1.5 mi Calm Calm - N/A   Clear
2:20 AM 50.0 °F 48.2 °F 94% 30.26 in 3.0 mi Calm Calm - N/A   Clear
2:53 AM 51.1 °F 48.0 °F 89% 30.29 in 10.0 mi Calm Calm - N/A   Clear
3:08 AM 50.0 °F 48.2 °F 94% 30.26 in 10.0 mi Calm Calm - N/A   Scattered Clouds
3:17 AM 50.0 °F 48.2 °F 94% 30.26 in 7.0 mi Calm Calm - N/A   Mostly Cloudy
3:30 AM 50.0 °F 48.2 °F 94% 30.25 in 1.2 mi Calm Calm - N/A   Mostly Cloudy
3:36 AM 50.0 °F 48.2 °F 94% 30.25 in 0.2 mi Calm Calm - N/A Fog Fog
3:46 AM 50.0 °F 48.2 °F 94% 30.25 in 1.0 mi Calm Calm - N/A   Mist
3:51 AM 50.0 °F 48.2 °F 94% 30.25 in 2.0 mi Calm Calm - N/A   Scattered Clouds
3:53 AM 50.0 °F 48.0 °F 93% 30.28 in 2.5 mi Calm Calm - N/A   Scattered Clouds
4:05 AM 48.2 °F 48.2 °F 100% 30.25 in 6.0 mi Calm Calm - N/A   Scattered Clouds
4:12 AM 48.2 °F 46.4 °F 93% 30.25 in 10.0 mi Calm Calm - N/A   Mostly Cloudy
4:32 AM 50.0 °F 46.4 °F 87% 30.26 in 1.5 mi Calm Calm - N/A   Overcast
4:40 AM 50.0 °F 48.2 °F 94% 30.26 in 0.5 mi Calm Calm - N/A Fog Fog
4:45 AM 48.2 °F 48.2 °F 100% 30.26 in 2.0 mi Calm Calm - N/A   Overcast
4:53 AM 50.0 °F 48.0 °F 93% 30.28 in 9.0 mi Calm Calm - N/A   Overcast
5:14 AM 48.2 °F 46.4 °F 93% 30.26 in 1.2 mi Calm Calm - N/A   Overcast
5:20 AM 48.2 °F 46.4 °F 93% 30.27 in 0.2 mi Calm Calm - N/A Fog Fog
5:36 AM 48.2 °F 48.2 °F 100% 30.27 in 0.8 mi Calm Calm - N/A   Overcast
5:45 AM 50.0 °F 48.2 °F 94% 30.28 in 0.8 mi Calm Calm - N/A   Overcast
5:53 AM 51.1 °F 48.9 °F 92% 30.30 in 1.2 mi Calm Calm - N/A   Overcast
5:59 AM 51.8 °F 50.0 °F 94% 30.28 in 3.0 mi Calm Calm - N/A   Overcast
6:53 AM 55.0 °F 53.1 °F 93% 30.31 in 6.0 mi SE 3.5 mph - N/A   Overcast
7:53 AM 57.0 °F 55.0 °F 93% 30.33 in 3.0 mi East 4.6 mph - N/A   Overcast
8:16 AM 59.0 °F 57.2 °F 94% 30.31 in 4.0 mi SE 3.5 mph - N/A   Overcast
8:53 AM 61.0 °F 59.0 °F 93% 30.34 in 7.0 mi SSE 3.5 mph - N/A   Overcast
9:53 AM 64.0 °F 61.0 °F 90% 30.35 in 10.0 mi South 3.5 mph - N/A   Overcast
10:53 AM 68.0 °F 61.0 °F 78% 30.35 in 10.0 mi SSW 4.6 mph - N/A   Overcast
11:32 AM 69.8 °F 60.8 °F 73% 30.30 in 10.0 mi SSW 11.5 mph - N/A   Overcast
11:53 AM 70.0 °F 61.0 °F 73% 30.32 in 10.0 mi SW 10.4 mph - N/A   Overcast
12:08 PM 69.8 °F 60.8 °F 73% 30.29 in 10.0 mi SSW 11.5 mph - N/A   Overcast
12:53 PM 71.1 °F 60.1 °F 68% 30.29 in 10.0 mi SSW 9.2 mph 17.3 mph N/A   Overcast
1:22 PM 69.8 °F 60.8 °F 73% 30.25 in 10.0 mi SSW 11.5 mph 17.3 mph N/A   Overcast
1:53 PM 69.1 °F 60.1 °F 73% 30.27 in 10.0 mi SSW 10.4 mph - N/A   Overcast
2:48 PM 71.6 °F 60.8 °F 69% 30.22 in 10.0 mi SSW 9.2 mph - N/A   Overcast
2:53 PM 71.1 °F 60.1 °F 68% 30.25 in 10.0 mi SSW 10.4 mph - N/A   Overcast
3:08 PM 71.6 °F 60.8 °F 69% 30.22 in 10.0 mi SSW 11.5 mph - N/A   Overcast
3:53 PM 71.1 °F 60.1 °F 68% 30.24 in 10.0 mi SSW 12.7 mph 18.4 mph N/A   Clear
4:53 PM 68.0 °F 59.0 °F 73% 30.23 in 10.0 mi South 8.1 mph - N/A   Mostly Cloudy
5:53 PM 66.9 °F 59.0 °F 76% 30.25 in 10.0 mi South 5.8 mph - N/A   Overcast
6:53 PM 66.0 °F 59.0 °F 78% 30.25 in 10.0 mi South 6.9 mph - N/A   Overcast
7:53 PM 64.9 °F 59.0 °F 81% 30.25 in 10.0 mi South 6.9 mph - N/A   Overcast
8:53 PM 62.1 °F 57.9 °F 86% 30.25 in 10.0 mi South 6.9 mph - N/A   Scattered Clouds
9:53 PM 61.0 °F 57.9 °F 90% 30.23 in 10.0 mi South 6.9 mph - N/A   Clear
10:53 PM 61.0 °F 57.9 °F 90% 30.23 in 10.0 mi South 3.5 mph - N/A   Clear
11:53 PM 60.1 °F 57.9 °F 93% 30.23 in 10.0 mi Calm Calm - N/A   Clear